Temperature
21 21 21 20 19 19 20 21 22 22 23 23 24 24 24 23 23 21 20 21 22 21 21 21 21 21 20 20 20 20 20 20 19 19 19 19 19 19 19 19 19 19 19 19 19 19 19 19 19
22 21 20 20 19 20 21 22 23 23 23 22 23 24 24 22 20 19 20 21 22 22 21 21 21 21 20 20 20 20 20 19 19 19 19 19 19 19 19 19 19 19 19 19 19 19 19 19 19
22 21 20 19 20 20 22 22 23 23 23 22 22 23 23 21 20 20 21 22 22 21 21 21 21 21 20 20 20 20 20 19 19 19 19 19 19 19 19 19 19 19 19 19 19 19 19 19 19
22 21 20 19 21 22 23 23 24 24 22 22 22 22 22 22 21 21 21 22 21 21 21 21 21 20 20 20 20 20 20 19 19 19 19 19 19 19 19 19 19 19 19 19 19 19 19 19 19
21 21 19 20 22 24 24 25 24 24 22 21 21 21 21 22 22 22 21 21 22 21 21 21 20 20 20 20 20 20 20 20 19 19 19 19 19 19 19 19 19 19 19 19 19 19 19 19 19
22 20 20 21 23 25 25 25 24 23 21 21 21 21 20 21 22 21 21 22 22 21 21 21 20 20 20 20 20 20 20 20 19 19 19 19 19 19 19 19 19 19 19 19 19 19 19 19 19
22 20 21 23 24 25 25 24 23 22 21 20 21 20 20 20 21 21 21 21 21 21 21 21 20 20 20 20 20 20 20 19 19 19 19 19 19 19 18 18 18 19 19 19 19 19 19 19 19
23 21 22 22 24 24 24 23 22 21 20 20 21 20 20 20 21 20 21 21 21 21 21 21 20 20 20 20 20 20 19 19 19 19 19 18 18 18 18 18 18 18 18 18 18 19 19 19 19
24 21 21 22 24 24 24 23 21 21 20 20 21 21 20 21 20 20 20 21 21 21 21 21 20 20 20 20 20 19 19 19 19 19 19 18 18 18 18 18 18 18 18 18 18 18 18 19 19
25 21 22 24 25 24 23 22 21 21 20 19 21 21 21 21 20 20 20 20 20 20 20 20 20 20 20 19 19 19 19 19 18 18 18 18 18 18 18 18 18 18 18 18 18 18 18 18 18
25 23 25 25 25 24 22 21 21 20 19 19 20 21 20 20 20 20 20 20 20 20 20 20 20 20 19 19 19 19 19 18 18 18 18 18 18 18 17 17 17 17 18 18 18 18 18 18 18
25 25 26 25 25 23 22 21 20 19 19 20 20 21 20 20 20 20 20 20 20 20 20 19 20 19 19 19 19 19 18 18 18 18 18 18 17 17 17 17 17 17 17 17 17 17 17 17 17
26 25 26 25 24 22 21 20 19 19 19 20 20 20 20 20 20 20 20 20 20 20 19 19 19 19 19 19 19 19 18 18 18 18 18 18 17 17 17 17 17 17 17 17 17 17 17 17 17
26 26 25 24 23 22 21 20 19 18 20 20 20 20 20 20 20 20 20 20 20 20 20 19 19 19 19 19 19 18 18 18 18 17 17 17 17 17 17 17 17 17 16 16 16 16 16 16 16
26 24 24 23 23 22 22 20 19 19 19 19 20 20 20 20 20 20 20 20 20 20 20 19 19 19 19 19 19 18 18 18 18 17 17 17 17 17 17 16 16 16 16 16 16 16 16 16 16
24 23 22 22 22 22 21 20 19 19 19 18 19 19 19 19 19 19 20 20 20 20 20 19 19 19 19 19 18 18 18 18 17 17 17 17 17 17 16 16 16 16 16 16 16 15 15 16 16
22 22 22 22 22 22 21 19 19 19 19 18 18 18 18 18 19 19 19 20 20 20 20 19 19 19 19 18 18 18 17 17 17 17 17 17 16 16 16 16 16 15 15 15 15 15 15 15 15
22 22 23 22 22 22 20 19 19 19 19 18 18 18 18 18 18 19 19 20 20 19 19 19 19 19 18 18 18 17 17 17 17 17 16 16 16 16 16 15 15 15 15 15 15 15 15 15 15
25 24 23 23 23 21 20 19 19 18 18 18 18 18 18 18 19 19 19 19 19 19 19 19 19 18 18 18 18 17 17 17 17 16 16 16 16 16 15 15 15 15 14 14 14 14 14 14 14
25 24 23 23 23 21 19 19 19 19 18 18 18 18 19 19 19 19 19 19 19 19 19 19 19 18 18 18 18 17 17 17 16 16 16 16 15 15 15 15 15 14 14 14 14 14 14 14 14
25 24 23 22 22 21 20 19 19 18 18 19 19 19 19 19 19 19 19 19 19 19 19 19 19 18 18 18 17 17 17 16 16 16 16 15 15 15 15 14 14 14 14 13 13 13 13 13 13
24 25 24 23 20 19 20 18 18 18 18 18 18 19 19 19 19 19 19 19 19 19 19 19 19 19 18 18 17 17 17 16 16 16 15 15 15 14 14 14 14 14 13 13 13 13 13 13 13
24 24 23 22 19 18 18 18 18 18 18 18 18 19 19 20 20 20 20 20 20 20 19 19 19 18 18 18 17 17 17 16 16 15 15 15 14 14 14 14 13 13 13 13 13 13 12 12 12
24 22 20 18 17 18 18 18 18 17 18 19 19 19 20 20 20 20 20 20 20 20 19 19 19 18 18 17 17 17 16 16 15 15 15 14 14 14 14 13 13 13 13 13 13 12 12 12 12
24 21 19 19 18 18 19 19 18 19 20 20 20 20 21 20 20 20 20 20 20 20 20 19 19 18 18 17 17 17 16 16 15 15 15 14 14 14 13 13 13 13 13 13 12 12 12 12 12
24 21 20 20 19 18 18 19 19 21 21 22 21 21 21 21 21 21 21 21 20 20 20 19 19 18 18 17 17 16 16 15 15 15 14 14 14 13 13 13 13 13 13 12 12 12 12 12 11
24 22 21 19 18 18 18 19 20 21 21 21 21 21 21 21 21 21 21 21 21 21 20 20 19 19 18 17 17 16 16 15 15 14 14 14 14 13 13 13 13 13 12 12 12 12 12 11 11
24 23 19 19 19 19 19 19 18 21 21 21 21 21 22 22 22 22 22 22 22 21 21 20 19 19 18 18 17 16 16 15 15 14 14 14 13 13 13 13 13 13 12 12 12 12 12 11 11
23 23 20 18 18 18 18 19 20 20 20 20 21 22 23 23 22 22 22 22 22 21 21 20 19 19 18 18 17 16 16 15 15 14 14 14 13 13 13 13 13 12 12 12 12 11 11 11 11
23 23 20 20 20 18 18 19 22 21 21 21 22 23 24 24 23 23 23 22 22 21 21 20 20 19 19 18 17 17 16 15 15 15 14 14 13 13 13 13 13 12 12 12 12 11 11 11 11
Wind_Speed
11 8 3 1 2 2 2 3 3 4 5 4 4 4 6 5 4 5 7 17 21 17 18 21 22 22 22 21 21 21 20 20 19 19 18 18 17 16 16 15 15 14 14 13 13 12 12 12 12
9 6 2 1 1 1 4 4 4 3 0 3 5 5 7 8 9 10 9 18 20 18 18 19 22 22 22 21 20 20 20 19 19 18 17 17 16 15 15 14 14 13 13 12 12 11 11 10 10
6 5 2 1 2 4 4 5 6 1 4 4 2 4 5 7 10 6 11 18 16 15 17 20 22 22 21 21 20 20 19 19 18 17 17 16 15 15 14 13 13 13 12 11 11 10 10 9 8
4 2 1 1 5 6 7 8 6 4 6 7 4 4 4 5 6 13 19 18 17 13 16 20 22 21 21 20 20 20 19 18 18 17 16 15 14 14 13 13 12 12 11 11 10 9 8 7 6
2 3 1 3 6 6 8 7 4 5 4 5 5 5 5 5 19 21 19 18 17 13 15 19 21 21 20 20 20 19 19 18 17 16 15 14 14 13 12 12 11 11 10 10 9 8 7 6 5
2 2 1 4 5 3 4 4 7 9 9 7 6 5 3 8 17 18 17 16 15 15 14 18 21 21 20 19 19 19 18 17 16 16 14 13 12 12 11 11 11 10 10 9 8 7 6 5 3
3 2 3 5 5 4 0 4 8 9 9 5 5 4 5 9 11 14 15 15 14 13 13 13 16 18 19 19 18 18 17 16 15 14 13 12 11 11 10 10 10 9 9 9 8 7 6 5 4
5 2 5 5 5 3 3 6 7 8 7 5 4 6 8 10 12 12 13 13 12 11 10 10 13 15 15 16 17 17 16 15 14 13 12 11 10 9 9 9 9 9 8 8 8 7 7 6 5
3 1 5 5 3 1 3 6 6 7 8 3 1 4 7 12 15 14 12 11 11 12 10 9 10 12 13 14 14 15 14 13 12 11 11 9 8 8 8 8 9 9 9 8 8 8 7 7 6
5 4 7 4 1 3 6 7 7 6 9 4 5 6 8 11 14 15 13 13 13 13 11 10 9 9 11 11 12 11 11 11 10 9 8 7 6 6 6 7 8 9 8 8 8 7 7 6 5
5 6 5 1 2 6 7 6 5 9 6 6 9 10 7 8 10 13 13 12 13 13 12 10 9 9 9 7 9 8 8 8 7 7 7 6 5 3 3 3 4 5 6 5 5 6 6 5 4
4 4 2 1 3 6 7 7 7 5 6 9 9 8 7 6 6 9 11 11 10 11 10 9 8 7 7 8 7 7 6 6 6 7 8 7 4 3 3 3 3 3 3 3 3 3 4 4 5
1 2 2 4 8 10 13 10 9 6 7 7 7 6 4 6 6 5 8 10 11 11 10 9 9 9 7 7 6 7 6 7 8 9 9 9 5 3 2 2 1 2 2 2 2 3 3 2 3
3 2 1 3 6 5 11 8 6 5 6 7 6 4 4 4 5 5 8 9 11 11 11 9 9 8 8 6 5 5 7 9 8 8 8 8 6 4 3 1 1 0 1 2 2 3 2 1 2
3 4 5 3 4 3 8 6 3 7 6 6 6 6 4 4 6 8 10 11 10 11 10 10 9 8 8 7 6 6 8 8 7 7 9 8 7 6 4 2 1 1 1 1 1 1 1 1 1
4 4 4 4 2 1 6 3 4 6 7 4 5 6 5 5 7 8 11 11 10 11 10 9 9 8 7 6 5 5 7 8 7 8 9 9 9 8 5 3 1 2 3 3 1 1 1 1 2
3 2 4 4 1 2 4 3 4 4 6 5 7 8 7 5 5 7 9 11 10 10 10 9 9 8 7 6 5 6 6 6 8 9 9 9 9 8 6 3 2 4 4 2 2 2 1 1 2
6 3 3 3 1 3 2 2 3 4 6 6 7 8 8 8 7 7 8 10 10 10 10 9 8 7 7 5 5 4 4 4 6 7 8 9 8 8 7 4 4 5 3 3 3 2 2 1 2
6 3 3 3 3 3 3 2 3 3 4 4 5 7 9 8 6 6 8 10 10 9 9 8 8 6 5 4 4 4 3 3 3 3 7 8 8 8 6 4 3 3 3 3 3 2 3 3 3
3 3 2 1 2 3 2 1 2 3 4 6 7 7 8 7 6 6 7 8 8 8 8 7 8 7 6 4 4 3 3 2 2 2 4 6 7 7 6 4 3 3 3 4 4 3 2 3 3
1 4 4 4 3 4 4 2 2 2 2 4 5 6 7 11 12 11 10 8 9 9 9 9 8 7 7 6 4 4 4 4 3 2 1 1 4 6 6 5 4 3 3 2 2 2 3 2 3
1 3 6 6 5 1 2 1 4 4 3 6 7 8 10 11 11 11 11 10 10 10 9 9 9 8 7 6 6 6 4 3 2 2 1 1 1 3 5 5 5 3 3 2 1 2 1 2 1
4 4 4 4 5 3 3 1 5 4 6 9 11 12 12 12 13 13 13 12 11 11 10 9 9 8 7 7 7 7 5 4 2 2 1 0 1 1 3 5 4 3 2 2 1 1 1 1 1
8 5 6 6 5 3 2 1 5 6 10 11 13 13 14 13 14 13 13 11 10 10 9 9 9 8 8 8 8 8 7 5 4 2 1 0 1 1 2 4 4 3 2 2 1 1 1 1 1
5 5 4 6 5 2 3 2 8 9 8 11 14 14 15 15 14 13 13 13 12 12 11 11 11 9 8 8 8 8 8 7 5 4 3 2 1 1 1 2 3 2 2 2 2 1 2 2 2
2 7 6 4 3 3 3 4 8 7 7 9 11 13 14 14 14 15 15 15 15 15 13 12 12 10 9 9 8 7 8 5 4 5 4 4 3 2 2 2 2 2 2 2 2 2 3 2 3
1 1 6 7 3 1 3 6 8 2 4 7 11 13 15 16 16 16 16 15 15 14 14 14 13 10 10 9 8 7 7 7 6 5 4 3 3 3 3 3 2 2 2 2 2 3 4 3 4
4 4 5 5 5 2 3 5 5 6 7 8 10 14 15 16 16 16 16 15 13 13 12 13 12 11 9 10 9 7 7 7 7 5 5 4 4 3 3 3 3 3 3 3 3 3 4 4 5
1 1 4 4 5 6 4 7 8 12 11 11 13 15 16 17 17 16 14 13 12 12 12 12 11 10 10 10 8 8 7 7 7 6 6 5 4 4 4 4 4 4 4 4 4 5 5 5 6
3 4 6 4 3 5 5 8 8 12 13 13 14 15 15 16 16 14 13 13 13 13 13 12 12 11 11 10 9 9 8 7 7 6 6 5 5 5 5 5 5 5 5 5 5 6 5 6 6
Wind_Direction
169 168 172 89 52 39 285 250 227 305 334 346 36 95 123 95 128 134 126 136 135 139 144 142 139 138 135 134 132 130 128 127 126 125 124 123 121 119 118 116 114 112 110 109 108 106 104 102 101
160 173 166 55 91 33 282 265 257 243 305 25 29 73 79 70 87 105 117 135 134 136 140 142 140 139 138 137 136 134 133 132 132 132 131 129 128 126 123 121 119 117 115 113 112 110 107 105 102
178 187 142 127 183 192 240 257 259 166 42 12 5 20 58 103 109 108 131 134 129 131 136 142 140 140 140 139 139 138 137 136 136 136 136 134 133 131 129 128 125 123 120 119 116 114 111 107 103
166 124 56 183 239 231 216 226 215 144 50 34 68 41 44 85 110 128 135 132 128 128 134 140 139 138 139 139 140 140 139 139 139 139 139 139 139 137 135 133 132 131 129 127 124 122 119 113 105
113 117 176 270 252 240 224 225 186 92 91 55 69 92 51 66 117 129 135 135 133 131 134 138 137 137 138 139 140 141 141 141 142 142 143 143 144 143 142 140 139 140 139 137 134 132 130 128 118
88 119 121 279 278 266 233 195 125 102 107 91 86 92 87 125 127 138 140 139 136 136 135 138 138 138 138 140 141 143 144 145 146 147 148 149 149 150 148 147 148 147 149 148 148 148 149 150 148
155 163 243 271 293 307 245 127 120 125 117 124 133 110 133 142 138 141 140 139 137 138 136 135 138 139 140 141 143 145 146 148 150 151 152 154 155 156 156 156 158 160 161 163 166 168 172 180 189
177 103 310 302 309 336 59 95 91 112 110 125 130 146 161 158 140 133 133 135 137 139 139 139 140 141 143 146 149 150 151 152 154 156 158 161 163 167 171 173 175 176 176 178 182 189 193 201 213
187 82 272 271 270 261 110 104 89 83 90 94 122 146 145 137 128 126 131 136 144 146 149 149 147 148 150 151 156 155 155 157 159 162 165 168 172 179 189 191 189 189 188 190 196 207 212 214 225
155 189 241 242 214 139 106 99 121 104 88 85 106 112 115 123 136 139 148 155 157 157 161 161 157 157 159 160 154 156 156 160 164 170 168 168 173 189 192 195 198 199 198 199 207 217 222 222 231
193 213 244 319 111 114 111 88 100 126 110 146 152 146 131 133 146 149 155 160 163 162 163 162 161 162 163 147 151 158 154 156 158 155 148 144 135 145 163 172 189 196 199 203 213 219 222 218 225
216 250 216 125 84 96 108 117 99 104 140 150 150 145 141 141 145 145 155 155 150 154 150 145 142 142 141 133 140 144 139 139 140 139 133 120 110 106 117 142 162 180 197 207 215 214 223 228 234
218 257 90 105 90 99 103 106 113 106 119 124 126 112 134 158 141 149 152 145 145 143 137 135 130 127 125 121 127 125 127 129 131 128 125 123 122 123 112 126 165 199 201 207 222 226 236 239 245
297 302 46 86 94 97 108 111 109 139 145 139 129 140 155 155 142 148 152 141 142 140 136 136 126 123 121 122 122 129 131 133 129 124 124 118 116 110 100 88 81 307 237 229 233 236 239 251 256
353 351 354 25 73 115 106 81 124 162 159 148 155 166 164 183 150 158 159 151 151 142 136 132 127 123 122 122 124 127 131 130 126 127 124 115 105 97 94 85 66 10 351 326 340 333 352 316 303
3 3 329 320 57 124 106 143 199 171 155 155 163 157 171 192 174 171 160 153 145 137 134 133 130 126 124 121 120 125 126 126 132 133 124 117 111 105 97 85 63 34 42 35 43 42 37 356 330
354 286 276 299 24 103 94 179 215 183 151 163 158 150 162 178 193 175 158 143 136 135 132 127 128 131 130 125 124 126 126 128 137 134 128 125 118 109 102 93 67 54 52 36 32 46 53 1 334
259 238 251 244 239 107 107 208 198 179 171 169 162 155 162 179 189 167 152 138 133 132 129 131 131 135 131 121 108 98 101 117 135 142 144 137 126 115 107 92 66 59 54 32 26 20 17 8 334
242 203 226 241 189 120 155 187 201 182 179 171 174 168 174 176 175 157 148 140 133 132 133 139 137 142 133 122 120 119 129 139 139 160 154 146 136 124 114 101 78 69 64 37 22 25 18 360 1
229 159 200 263 141 122 129 135 193 181 189 187 184 184 177 166 156 157 149 150 146 147 147 147 147 150 146 140 142 143 139 136 139 136 147 153 147 142 136 124 111 91 67 40 39 48 40 359 23
186 164 184 171 112 75 98 37 264 249 192 200 202 194 182 174 170 170 168 167 161 161 165 161 159 156 153 143 121 97 80 71 69 83 122 176 161 155 149 141 131 115 100 70 47 67 84 16 350
214 162 141 133 116 78 93 228 260 223 224 214 207 198 191 184 176 175 173 175 176 177 172 164 164 159 153 141 132 130 131 135 163 169 179 231 164 164 163 153 143 131 117 103 82 101 105 100 353
151 113 89 101 115 84 35 109 273 201 216 215 208 203 198 190 181 183 183 183 182 179 175 171 166 160 155 146 139 129 129 142 143 123 111 14 347 84 154 148 134 129 125 124 96 86 91 142 181
135 87 57 49 69 51 297 179 268 215 209 204 206 201 196 192 189 189 188 183 182 180 177 171 166 165 161 151 144 142 144 145 133 122 118 23 18 38 101 134 136 141 148 165 193 201 231 225 233
116 95 27 2 16 278 274 223 251 235 218 194 195 196 194 192 190 189 187 185 187 187 184 176 169 168 166 155 152 151 150 147 147 153 153 140 111 105 139 137 149 162 193 210 205 217 254 253 253
209 140 159 206 217 267 313 268 263 256 226 195 188 189 189 189 191 192 192 190 192 192 186 177 174 171 169 161 161 158 152 146 148 155 157 158 166 177 172 153 165 197 220 230 214 229 249 244 251
139 176 169 135 122 122 280 292 304 277 169 180 183 184 191 192 192 194 194 192 190 187 184 178 173 170 170 168 164 163 160 157 163 166 158 159 171 176 161 159 177 220 238 244 237 240 254 255 252
170 170 89 109 142 198 272 270 244 230 208 193 187 191 194 193 193 194 193 191 187 182 177 171 168 169 169 167 168 170 169 169 169 165 173 182 193 192 189 204 217 241 256 256 244 251 256 256 260
262 120 118 128 154 153 212 259 224 209 207 200 201 195 195 195 195 194 191 184 175 169 167 166 167 163 166 168 167 163 171 174 172 176 190 195 202 202 205 217 228 241 252 254 247 251 254 252 261
207 190 144 146 223 169 177 256 247 201 204 201 205 202 198 196 194 188 178 169 166 167 168 168 169 170 174 172 170 172 175 174 178 190 202 200 204 211 213 218 227 240 245 246 244 251 251 243 250
Height
1529 1530 1532 1533 1535 1539 1539 1529 1521 1519 1519 1517 1513 1511 1510 1512 1518 1526 1524 1525 1530 1533 1537 1541 1543 1545 1546 1547 1549 1550 1551 1552 1553 1554 1555 1556 1557 1558 1558 1559 1560 1561 1562 1562 1563 1563 1564 1564 1565
1529 1531 1533 1534 1538 1547 1540 1524 1519 1517 1518 1516 1514 1513 1511 1514 1516 1519 1522 1527 1530 1534 1538 1541 1544 1545 1546 1548 1549 1550 1551 1553 1554 1555 1556 1557 1558 1558 1559 1560 1561 1562 1562 1563 1564 1564 1565 1566 1566
1529 1531 1533 1535 1538 1541 1534 1520 1515 1516 1516 1515 1516 1514 1515 1518 1519 1521 1524 1528 1532 1535 1539 1542 1544 1546 1547 1548 1550 1551 1552 1553 1554 1555 1556 1557 1558 1559 1560 1561 1562 1562 1563 1564 1565 1565 1566 1567 1568
1529 1532 1533 1537 1537 1526 1520 1513 1511 1514 1516 1516 1518 1519 1518 1521 1521 1523 1527 1530 1533 1536 1539 1542 1545 1546 1548 1549 1550 1551 1553 1554 1555 1556 1557 1558 1559 1559 1560 1561 1562 1563 1564 1565 1565 1566 1567 1568 1569
1529 1530 1535 1538 1530 1518 1511 1508 1510 1512 1517 1519 1518 1521 1521 1522 1522 1526 1529 1532 1534 1537 1540 1543 1545 1547 1548 1550 1551 1552 1553 1554 1555 1556 1557 1558 1559 1560 1561 1561 1562 1563 1564 1565 1566 1567 1568 1569 1570
1528 1529 1539 1539 1525 1513 1509 1509 1511 1515 1517 1519 1521 1523 1525 1526 1525 1529 1531 1534 1536 1538 1541 1543 1546 1547 1549 1550 1551 1552 1554 1555 1556 1557 1558 1559 1559 1560 1561 1562 1563 1564 1564 1565 1566 1567 1568 1569 1570
1527 1529 1533 1529 1522 1514 1509 1510 1513 1515 1517 1519 1518 1524 1526 1528 1528 1530 1533 1536 1538 1540 1541 1543 1546 1548 1549 1551 1552 1553 1554 1555 1556 1557 1558 1559 1560 1561 1561 1562 1563 1564 1564 1565 1566 1567 1568 1569 1570
1523 1526 1529 1526 1522 1517 1511 1511 1514 1516 1519 1520 1519 1520 1524 1526 1528 1531 1534 1537 1539 1541 1542 1544 1546 1548 1550 1551 1553 1554 1554 1556 1557 1558 1558 1559 1560 1561 1561 1562 1563 1563 1564 1565 1566 1567 1568 1569 1570
1522 1528 1532 1524 1518 1515 1511 1511 1515 1517 1516 1519 1519 1519 1523 1525 1527 1531 1534 1537 1539 1541 1543 1545 1546 1548 1550 1551 1553 1554 1555 1556 1557 1558 1559 1559 1560 1561 1561 1562 1562 1563 1563 1564 1565 1566 1567 1568 1569
1517 1527 1521 1512 1510 1511 1511 1511 1514 1517 1517 1518 1518 1521 1523 1525 1528 1529 1533 1535 1538 1540 1542 1544 1546 1548 1550 1551 1552 1553 1555 1556 1557 1558 1558 1559 1560 1561 1561 1561 1562 1562 1562 1563 1564 1564 1565 1566 1567
1513 1515 1509 1509 1508 1508 1510 1512 1514 1515 1519 1519 1518 1521 1524 1527 1529 1529 1532 1534 1537 1539 1541 1544 1546 1548 1549 1551 1552 1553 1554 1555 1556 1557 1558 1558 1559 1560 1560 1560 1561 1561 1561 1562 1562 1563 1563 1564 1565
1509 1507 1507 1508 1506 1507 1509 1512 1515 1516 1517 1518 1519 1521 1523 1525 1528 1530 1533 1535 1536 1538 1541 1543 1545 1547 1549 1550 1552 1553 1554 1555 1556 1556 1557 1557 1558 1558 1559 1559 1560 1560 1560 1560 1561 1561 1561 1562 1563
1506 1506 1505 1506 1505 1507 1509 1512 1513 1517 1517 1518 1520 1522 1524 1526 1527 1531 1534 1535 1537 1539 1541 1543 1545 1547 1548 1550 1551 1552 1553 1554 1555 1555 1556 1556 1557 1557 1557 1558 1558 1558 1558 1558 1558 1558 1559 1559 1560
1505 1503 1504 1505 1504 1507 1508 1513 1515 1519 1518 1519 1519 1521 1523 1526 1528 1531 1533 1534 1536 1538 1540 1543 1545 1547 1548 1549 1551 1551 1552 1553 1554 1554 1555 1555 1555 1556 1556 1556 1556 1556 1556 1556 1556 1556 1556 1557 1557
1504 1505 1505 1504 1504 1507 1507 1516 1516 1517 1518 1519 1519 1521 1523 1525 1528 1528 1531 1533 1536 1538 1541 1543 1545 1547 1548 1549 1550 1551 1552 1552 1553 1554 1554 1554 1554 1554 1554 1555 1554 1554 1554 1554 1554 1554 1554 1554 1555
1505 1510 1515 1507 1505 1506 1510 1521 1516 1516 1517 1518 1520 1521 1523 1525 1527 1529 1532 1534 1536 1538 1540 1542 1545 1547 1548 1549 1550 1551 1551 1552 1552 1553 1553 1553 1554 1553 1553 1553 1553 1553 1553 1552 1552 1552 1552 1552 1552
1515 1520 1518 1511 1505 1506 1510 1517 1514 1514 1515 1516 1518 1520 1522 1526 1528 1529 1531 1533 1536 1538 1539 1542 1544 1546 1547 1548 1549 1550 1551 1551 1552 1552 1553 1553 1553 1553 1552 1552 1552 1551 1551 1551 1550 1550 1550 1550 1550
1520 1518 1515 1513 1507 1507 1511 1514 1513 1513 1515 1516 1516 1518 1520 1524 1526 1528 1531 1534 1536 1538 1540 1542 1543 1545 1547 1547 1548 1549 1550 1551 1551 1552 1552 1553 1552 1552 1551 1551 1550 1550 1549 1549 1549 1549 1548 1548 1548
1504 1510 1513 1509 1505 1509 1512 1513 1513 1513 1514 1516 1516 1517 1520 1522 1526 1528 1531 1533 1535 1537 1539 1541 1543 1544 1546 1547 1547 1548 1549 1550 1551 1551 1552 1552 1551 1551 1550 1549 1548 1548 1547 1547 1547 1547 1547 1547 1546
1500 1509 1512 1508 1504 1510 1515 1516 1513 1513 1514 1515 1517 1518 1519 1522 1524 1527 1529 1532 1534 1536 1539 1541 1542 1544 1545 1546 1547 1548 1549 1549 1550 1550 1550 1550 1550 1549 1549 1548 1547 1547 1546 1546 1545 1545 1545 1545 1545
1500 1506 1507 1509 1508 1511 1516 1522 1518 1515 1514 1515 1517 1517 1519 1521 1523 1526 1528 1531 1534 1536 1538 1540 1541 1543 1544 1545 1546 1547 1548 1548 1549 1549 1549 1549 1548 1548 1547 1547 1546 1546 1545 1545 1544 1544 1544 1544 1544
1505 1497 1499 1503 1516 1525 1521 1536 1523 1517 1516 1515 1515 1517 1518 1521 1523 1525 1527 1530 1533 1535 1537 1539 1540 1542 1543 1544 1545 1545 1546 1546 1547 1547 1547 1547 1546 1546 1546 1546 1545 1545 1544 1544 1543 1543 1543 1542 1542
1498 1496 1500 1506 1516 1526 1525 1533 1527 1518 1518 1515 1514 1515 1517 1519 1522 1524 1526 1529 1531 1534 1536 1537 1539 1540 1541 1542 1543 1543 1544 1544 1544 1545 1545 1545 1544 1544 1544 1544 1544 1543 1543 1542 1542 1541 1541 1540 1540
1492 1501 1508 1516 1523 1536 1530 1533 1529 1518 1512 1510 1510 1513 1515 1517 1520 1522 1525 1528 1530 1532 1534 1536 1537 1538 1539 1540 1541 1541 1541 1542 1542 1542 1542 1542 1542 1542 1542 1542 1542 1541 1541 1540 1540 1539 1539 1538 1538
1492 1512 1531 1535 1543 1541 1525 1526 1522 1503 1499 1501 1504 1507 1510 1514 1517 1520 1522 1525 1527 1529 1531 1533 1535 1536 1537 1538 1538 1539 1539 1539 1539 1540 1540 1540 1540 1540 1540 1540 1540 1539 1539 1538 1538 1537 1536 1536 1535
1493 1505 1529 1539 1544 1538 1527 1526 1509 1493 1492 1494 1499 1503 1507 1510 1513 1515 1518 1521 1523 1526 1528 1530 1532 1533 1534 1535 1536 1536 1536 1537 1537 1537 1537 1537 1537 1538 1537 1537 1537 1537 1536 1536 1535 1535 1534 1533 1533
1492 1500 1503 1523 1533 1540 1532 1520 1503 1491 1491 1493 1496 1501 1503 1506 1509 1511 1514 1517 1520 1522 1524 1526 1528 1530 1532 1533 1533 1534 1534 1534 1534 1534 1535 1535 1535 1535 1535 1535 1535 1534 1534 1533 1532 1532 1531 1531 1530
1485 1491 1507 1521 1537 1542 1533 1526 1516 1498 1494 1492 1494 1496 1498 1502 1505 1507 1510 1513 1516 1519 1521 1524 1526 1527 1529 1530 1530 1531 1531 1532 1532 1532 1532 1532 1532 1532 1532 1532 1532 1532 1531 1530 1530 1529 1528 1527 1527
1489 1492 1500 1513 1520 1535 1541 1525 1491 1489 1487 1488 1489 1490 1493 1496 1499 1502 1506 1509 1513 1516 1518 1521 1523 1524 1526 1527 1527 1528 1529 1529 1529 1529 1529 1529 1529 1530 1530 1529 1529 1528 1528 1527 1526 1526 1525 1524 1523
1484 1488 1497 1513 1517 1520 1526 1515 1476 1478 1479 1481 1483 1486 1488 1491 1495 1498 1502 1506 1509 1512 1515 1517 1519 1521 1522 1524 1525 1525 1526 1526 1526 1526 1526 1527 1527 1527 1527 1526 1526 1525 1525 1524 1523 1522 1521 1520 1519